Lid_Strength_Index
16 19 22 20 19 18 18 19 20 18 17 17 19 18 16 15 15 15 15 15 14 13 12 11 12 13 14 14 15 15 15 15 16 16 17 16 16 15 16 15 14 14 14 13
17 21 19 17 17 18 19 20 21 19 16 18 18 18 17 16 15 15 15 15 14 14 13 13 12 13 13 13 14 14 14 14 14 15 14 14 14 14 13 13 13 13 13 12
20 19 17 18 19 19 20 21 21 21 18 17 19 18 17 17 16 15 14 14 13 14 14 13 13 13 13 13 13 13 13 13 13 13 13 13 13 14 14 13 13 12 12 12
20 19 19 20 20 20 21 19 19 19 20 23 19 21 19 18 18 15 15 15 14 14 14 14 13 13 13 12 12 12 12 13 13 13 13 13 13 14 14 13 13 13 12 12
21 21 21 20 20 19 20 19 20 20 21 21 20 23 18 19 18 17 17 14 14 13 14 15 14 13 13 12 12 12 12 12 12 12 13 13 13 13 14 14 13 13 12 12
22 20 20 20 19 19 18 19 20 20 21 23 22 22 19 18 18 16 16 16 14 13 14 14 15 14 14 14 13 13 13 12 12 12 12 12 13 13 14 14 13 13 12 12
21 22 21 20 20 19 19 21 25 24 24 23 23 24 19 17 15 16 16 16 16 14 14 15 15 16 16 16 15 14 13 13 12 12 12 12 13 13 13 13 13 13 13 13
22 22 22 20 22 22 21 21 24 28 26 24 22 24 18 16 16 16 15 15 15 16 13 14 15 16 16 16 15 15 14 14 13 13 12 13 13 13 13 13 13 13 12 12
23 21 22 21 21 21 21 22 22 28 34 28 23 20 16 17 16 16 16 16 16 16 15 13 13 15 15 16 16 15 15 14 14 13 13 13 13 14 14 14 13 13 12 12
21 23 22 22 21 21 22 21 23 25 29 30 23 22 20 17 16 16 16 16 15 15 15 14 14 14 14 14 15 15 14 14 14 14 14 14 14 13 14 13 14 13 13 13
21 21 22 22 23 22 24 23 23 23 23 28 28 23 18 17 16 15 16 15 15 15 14 14 14 14 13 14 14 15 15 14 14 14 14 14 14 14 14 14 14 13 13 13
20 22 25 22 23 22 21 21 21 26 25 24 24 22 14 15 16 16 16 14 12 14 13 13 13 13 14 14 14 14 14 14 14 13 13 14 14 13 14 14 13 13 13 13
19 23 27 22 22 22 23 21 20 23 24 25 26 21 16 15 13 13 13 13 12 12 12 12 14 14 13 13 13 13 13 13 13 13 13 13 13 13 13 13 13 13 13 13
16 22 22 21 19 21 23 23 22 24 27 20 21 19 16 14 14 13 13 13 12 12 13 13 14 14 14 13 13 12 12 12 12 12 12 13 12 12 13 13 13 13 13 13
18 25 24 22 20 21 20 19 20 23 20 23 19 18 16 14 14 13 12 13 14 14 14 14 14 14 13 13 12 12 12 12 11 12 12 12 11 11 11 12 12 12 13 13
20 23 26 27 22 20 21 19 19 18 18 18 18 19 14 13 13 14 13 14 15 14 13 13 13 12 12 12 12 11 11 11 11 11 12 10 10 10 11 11 11 12 12 13
21 23 24 27 24 26 25 20 18 18 18 17 20 16 15 16 15 14 14 15 14 13 12 12 12 11 10 10 9 11 10 10 10 11 10 10 10 10 11 11 11 11 12 12
22 21 19 23 25 30 19 16 16 17 16 15 16 15 14 14 13 13 11 12 12 12 12 11 11 10 10 10 11 10 10 10 10 11 10 9 10 10 10 10 11 11 11 12
15 16 19 22 23 20 18 16 17 18 18 15 16 16 15 14 14 14 11 11 11 12 11 11 10 10 9 9 8 8 9 9 9 9 8 8 9 9 10 10 10 10 10 11
17 15 16 20 22 28 19 17 15 15 20 15 16 16 16 16 19 17 13 12 12 12 11 11 10 9 9 8 8 8 8 8 8 7 8 8 9 10 10 10 10 10 10 10
21 19 19 18 19 21 18 16 14 21 19 16 16 16 16 18 16 14 12 12 11 11 11 10 10 10 9 8 8 7 7 8 7 6 7 8 8 9 9 9 10 10 10 10
21 22 22 23 24 22 15 16 18 15 15 15 15 15 15 15 14 13 13 13 12 11 10 10 9 9 8 7 7 7 7 5 5 6 7 7 7 7 7 9 8 9 9 9
20 17 19 18 18 13 13 14 14 13 14 14 14 14 14 14 14 13 13 12 12 10 9 8 7 6 6 6 5 5 5 4 4 5 6 6 6 6 7 8 8 8 9 9
17 15 18 17 16 14 14 13 13 13 14 13 13 13 13 14 13 12 11 10 9 8 7 6 6 6 5 4 3 3 3 3 5 6 6 5 6 6 6 8 8 8 8 9
17 16 17 17 14 13 14 13 13 13 12 13 12 12 12 11 11 9 9 8 6 5 4 4 4 5 4 4 4 3 3 3 3 4 5 5 6 6 7 7 8 8 7 8
15 16 16 17 13 13 14 13 12 13 13 12 12 12 11 9 9 8 7 6 4 4 4 4 4 4 5 5 5 4 4 4 4 5 5 5 5 6 7 8 8 6 5 5